Flag Weather past 2 weeks in Leeds, England, United Kingdom

Now
63 °F

Passing clouds.


Feels Like: 63 °F
Forecast: N/A
Wind: 13 mph from South

Location: Leeds And Bradford

Current Time: Oct 31, 2014 at 3:56:22 PM

Latest Report: Oct 31, 2014 at 3:20 PM


Visibility: N/A

Pressure: 29.83 "Hg

Humidity: 73%

Dew point: 54 °F

Location of LeedsLocation

Historic Weather in Leeds — Graph

°F

Leeds temperature yesterday

Maximum temperature yesterday: 59 °F (at 12:50 PM)
Minimum temperature yesterday: 46 °F (at 12:20 AM)
Average temperature yesterday: 54 °F

Past Weeks' High & Low Weather Summary

 TemperatureHumidityPressure
High66 °F (Oct 31, 11:50 AM)100% (Oct 16, 6:20 PM)30.18 "Hg (Oct 16, 6:20 PM)
Low37 °F (Oct 29, 5:20 AM)53% (Oct 21, 4:50 PM)29.27 "Hg (Oct 21, 5:20 AM)
Average53 °F87%29.85 "Hg
* Reported Oct 16 3:20 PM — Oct 31 2:50 PM, Leeds, Weather by CustomWeather, © 2014

Note: Actual official high and low records may vary slightly from our data, if they occured in-between our weather recording intervals... More about our weather records

Advertising

Leeds weather history for previous 24 hours

 ConditionsComfort  
Time TempWeatherWind HumidityBarometerVisibility
2:50 PM
Oct 31
63 °FPassing clouds.13 mph77%29.86 "HgN/A
2:20 PM63 °FPassing clouds.12 mph77%29.86 "HgN/A
1:50 PM63 °FPassing clouds.10 mph77%29.86 "HgN/A
1:20 PM64 °FPassing clouds.9 mph78%29.89 "HgN/A
12:50 PM64 °FPassing clouds.12 mph73%29.89 "HgN/A
12:20 PM66 °FPassing clouds.12 mph73%29.89 "HgN/A
11:50 AM66 °FPassing clouds.10 mph73%29.89 "HgN/A
11:20 AM64 °FScattered clouds.7 mph83%29.92 "HgN/A
10:50 AM63 °FPartly sunny.6 mph88%29.92 "HgN/A
10:20 AM61 °FPartly sunny.6 mph88%29.92 "HgN/A
9:50 AM61 °FPartly sunny.7 mph88%29.92 "HgN/A
9:20 AM59 °FScattered clouds.7 mph94%29.92 "Hg4 mi
8:50 AM57 °FScattered clouds.9 mph94%29.92 "Hg4 mi
8:20 AM55 °FScattered clouds.7 mph100%29.92 "Hg4 mi
7:50 AM55 °FScattered clouds.7 mph100%29.92 "Hg4 mi
7:20 AM55 °FPartly sunny.8 mph100%29.92 "Hg4 mi
6:50 AM55 °FPassing clouds.8 mph100%29.92 "Hg4 mi
6:20 AM55 °FPassing clouds.8 mph100%29.92 "Hg6 mi
5:50 AM57 °FPassing clouds.10 mph94%29.92 "HgN/A
5:20 AM57 °FPassing clouds.9 mph94%29.92 "HgN/A
4:50 AM57 °FPassing clouds.8 mph94%29.92 "Hg6 mi
4:20 AM57 °FPassing clouds.9 mph94%29.92 "Hg6 mi
3:50 AMN/A8 mphN/AN/AN/A
3:20 AM57 °FPassing clouds.9 mph94%29.95 "Hg4 mi
2:50 AM57 °FPassing clouds.8 mph94%29.95 "Hg4 mi
2:20 AM57 °FPassing clouds.9 mph94%29.95 "Hg4 mi
1:50 AM55 °FPassing clouds.7 mph100%29.95 "Hg4 mi
1:20 AM55 °FPassing clouds.6 mph100%29.95 "Hg4 mi
12:50 AM55 °FPassing clouds.6 mph100%29.95 "Hg4 mi
12:20 AM55 °FPassing clouds.3 mph100%29.95 "Hg4 mi
11:50 PM
Oct 30
55 °FPassing clouds.5 mph100%29.95 "Hg4 mi
11:20 PM55 °FPassing clouds.9 mph100%29.95 "Hg5 mi
10:50 PM55 °FPassing clouds.8 mph100%29.95 "Hg5 mi
10:20 PM55 °FPassing clouds.8 mph100%29.98 "HgN/A
9:50 PM57 °FPassing clouds.7 mph94%29.98 "HgN/A
9:20 PM57 °FPassing clouds.8 mph94%29.98 "HgN/A
8:50 PM57 °FPassing clouds.6 mph100%29.98 "HgN/A
8:20 PM57 °FPassing clouds.8 mph100%29.98 "HgN/A
7:50 PM57 °FPassing clouds.8 mph94%29.98 "HgN/A
7:20 PM57 °FPassing clouds.8 mph94%29.98 "HgN/A
6:50 PM57 °FPassing clouds.8 mph94%29.98 "HgN/A
6:20 PM55 °FPassing clouds.7 mph100%29.98 "HgN/A
5:50 PM55 °FPassing clouds.6 mph100%29.98 "HgN/A
5:20 PM57 °FPassing clouds.5 mph100%29.98 "HgN/A
4:50 PM57 °FPassing clouds.5 mph100%29.98 "HgN/A
4:20 PM59 °FPartly sunny.6 mph94%29.98 "HgN/A
3:50 PM59 °FPartly sunny.6 mph94%29.98 "HgN/A
3:20 PM59 °FPartly sunny.7 mph94%29.98 "HgN/A
Weather by CustomWeather, © 2014

See weather overviewHow to use our weather pages